STARLINK-35245 (65599 NORAD) Tracking and Keplerian Element Data

This shows tracking and keplerian element data for the satellite.

Feedback or suggestion? Click here.




ElementValue
Catalog65599
NameSTARLINK-35245
Epoch Orbit589
Epoch Day354.25003472
Epoch Year2025
RAAN60.3233
Inclination97.6031
Eccentricity0.0002138
Argument of Perigee67.6506
Mean Anonmoly8.2661
Mean Motion15.2797282
Decay Rate-0.01717892
L11 65599U 25207H 25354.25003472 -.01717892 00000+0 -69713-1 0 9995
L22 65599 97.6031 60.3233 0002138 67.6506 8.2661 15.27972820 5891



Live tracking and technical data element details for STARLINK-35245 (NORAD 65599). STARLINK-35245 can be tracked NOW for your location showing map with azimuth and elevation plus other details from your city location.







IsCatalogInMostPopularTable: catalog: 65599, numindb: 7
Update: records affected: 1



GetName: 65599 STARLINK-35245

Hit Count: updated at: Mon, 20 Apr 2026 10:45:56 GMT